This demonstration page uses our WeatherBlox Daily Observations layout. Learn more.

Left ArrowRight Arrow

Hourly Observations for December 9, 2016

Temp ( °F °C ) Dew Point ( °F °C ) Humidity (%) Winds ( mph kmh ) Pressure ( in mb ) Visibility ( mi km ) Precip ( " mm )
12:19 am 00:19 Cloudy 19 -7 16 -9 86 86 W 9 15 30.50 1033 7 11 N/A
12:39 am 00:39 Cloudy 19 -7 16 -9 86 86 W 8 13 30.50 1033 5 8 N/A
12:59 am 00:59 Cloudy 19 -7 16 -9 86 86 W 8 13 30.50 1033 5 8 N/A
1:18 am 01:18 Cloudy 19 -7 16 -9 86 86 W 8 13 30.50 1033 5 8 N/A
1:39 am 01:39 Cloudy 19 -7 16 -9 86 86 W 8 13 30.50 1033 5 8 N/A
1:59 am 01:59 Cloudy 19 -7 18 -8 93 93 W 7 11 30.50 1033 4 6 N/A
2:19 am 02:19 Cloudy 19 -7 18 -8 93 93 W 8 13 30.50 1033 4 6 N/A
2:39 am 02:39 Cloudy 19 -7 18 -8 93 93 W 9 15 30.50 1033 4 6 N/A
2:59 am 02:59 Cloudy 19 -7 16 -9 86 86 W 9 15 30.53 1034 5 8 N/A
3:19 am 03:19 Cloudy 19 -7 16 -9 86 86 W 10 17 30.53 1034 5 8 N/A
3:39 am 03:39 Cloudy 19 -7 16 -9 86 86 W 9 15 30.53 1034 5 8 N/A
3:59 am 03:59 Cloudy 19 -7 16 -9 86 86 W 9 15 30.53 1034 7 11 N/A
4:19 am 04:19 Cloudy 19 -7 16 -9 86 86 W 9 15 30.53 1034 7 11 N/A
4:39 am 04:39 Cloudy 19 -7 16 -9 86 86 W 10 17 30.53 1034 5 8 N/A
4:59 am 04:59 Cloudy 19 -7 16 -9 86 86 W 10 17 30.53 1034 7 11 N/A
5:19 am 05:19 Cloudy 19 -7 16 -9 86 86 W 12 19 30.53 1034 7 11 N/A
5:39 am 05:39 Cloudy 19 -7 16 -9 86 86 W 14 22 30.53 1034 7 11 N/A
5:59 am 05:59 Cloudy 21 -6 14 -10 74 74 WNW 13 20 30.53 1034 10 16 N/A
6:19 am 06:19 Cloudy 21 -6 16 -9 80 80 W 9 15 30.53 1034 10 16 N/A
6:39 am 06:39 Cloudy 19 -7 16 -9 86 86 W 9 15 30.53 1034 10 16 N/A
6:59 am 06:59 Cloudy 19 -7 14 -10 79 79 W 9 15 30.56 1035 10 16 N/A
7:19 am 07:19 Cloudy 19 -7 16 -9 86 86 W 9 15 30.56 1035 10 16 N/A
7:39 am 07:39 Cloudy 19 -7 16 -9 86 86 W 10 17 30.56 1035 10 16 N/A
7:59 am 07:59 Cloudy 19 -7 16 -9 86 86 W 12 19 30.56 1035 10 16 N/A
8:19 am 08:19 Cloudy 19 -7 16 -9 86 86 W 10 17 30.56 1035 10 16 N/A
8:39 am 08:39 Cloudy 21 -6 16 -9 80 80 W 10 17 30.56 1035 10 16 N/A
8:59 am 08:59 Cloudy 21 -6 16 -9 80 80 W 10 17 30.56 1035 10 16 N/A
9:19 am 09:19 Cloudy 21 -6 16 -9 80 80 W 10 17 30.59 1036 10 16 N/A
9:39 am 09:39 Cloudy 21 -6 16 -9 80 80 W 10 17 30.59 1036 10 16 N/A
9:59 am 09:59 Cloudy 21 -6 16 -9 80 80 W 10 17 30.59 1036 10 16 N/A
10:19 am 10:19 Cloudy 21 -6 18 -8 86 86 W 13 20 30.59 1036 10 16 N/A
10:39 am 10:39 Cloudy 23 -5 18 -8 80 80 W 10 17 30.59 1036 10 16 N/A
10:59 am 10:59 Mostly Cloudy 25 -4 18 -8 74 74 W 13 20 30.59 1036 10 16 N/A
11:19 am 11:19 Partly Cloudy 25 -4 18 -8 74 74 W 13 20 30.59 1036 10 16 N/A
11:39 am 11:39 Partly Cloudy 25 -4 18 -8 74 74 W 13 20 30.59 1036 10 16 N/A
11:59 am 11:59 Mostly Cloudy 27 -3 18 -8 69 69 W 13 20 30.59 1036 10 16 N/A
12:19 pm 12:19 Mostly Cloudy 27 -3 18 -8 69 69 W 13 20 30.59 1036 10 16 N/A
12:39 pm 12:39 Cloudy 27 -3 18 -8 69 69 WNW 12 19 30.59 1036 10 16 N/A
12:59 pm 12:59 Cloudy 27 -3 18 -8 69 69 W 8 13 30.56 1035 10 16 N/A
1:19 pm 13:19 Cloudy 27 -3 18 -8 69 69 WNW 13 20 30.56 1035 10 16 N/A
1:39 pm 13:39 Cloudy 27 -3 16 -9 64 64 W 9 15 30.56 1035 10 16 N/A
1:59 pm 13:59 Cloudy 27 -3 16 -9 64 64 WNW 10 17 30.56 1035 10 16 N/A
2:20 pm 14:20 Cloudy 27 -3 16 -9 64 64 W 10 17 30.56 1035 10 16 N/A
2:39 pm 14:39 Cloudy 27 -3 16 -9 64 64 W 10 17 30.56 1035 10 16 N/A
2:59 pm 14:59 Cloudy 27 -3 16 -9 64 64 W 9 15 30.56 1035 10 16 N/A
3:20 pm 15:20 Cloudy 27 -3 16 -9 64 64 W 10 17 30.56 1035 10 16 N/A
3:39 pm 15:39 Cloudy 27 -3 16 -9 64 64 W 12 19 30.56 1035 10 16 N/A
3:59 pm 15:59 Cloudy 25 -4 16 -9 69 69 W 9 15 30.56 1035 10 16 N/A
4:19 pm 16:19 Cloudy 25 -4 14 -10 63 63 W 10 17 30.56 1035 10 16 N/A
4:39 pm 16:39 Cloudy 25 -4 16 -9 69 69 W 9 15 30.56 1035 10 16 N/A
4:59 pm 16:59 Cloudy 25 -4 16 -9 69 69 WNW 9 15 30.56 1035 10 16 N/A
5:19 pm 17:19 Cloudy 25 -4 16 -9 69 69 W 9 15 30.56 1035 10 16 N/A
5:39 pm 17:39 Cloudy 25 -4 18 -8 74 74 W 9 15 30.56 1035 10 16 N/A
5:59 pm 17:59 Cloudy 25 -4 16 -9 69 69 W 8 13 30.59 1036 10 16 N/A
6:19 pm 18:19 Cloudy 25 -4 18 -8 74 74 W 8 13 30.59 1036 10 16 N/A
6:39 pm 18:39 Cloudy 25 -4 18 -8 74 74 W 8 13 N/A 10 16 N/A
6:59 pm 18:59 Cloudy 25 -4 18 -8 74 74 WSW 12 19 30.59 1036 10 16 N/A
7:19 pm 19:19 Cloudy 23 -5 18 -8 80 80 W 7 11 30.59 1036 7 11 N/A
7:39 pm 19:39 Cloudy 23 -5 18 -8 80 80 W 6 9 30.59 1036 10 16 N/A
7:59 pm 19:59 Cloudy 25 -4 16 -9 69 69 W 6 9 30.59 1036 10 16 N/A
8:19 pm 20:19 Cloudy 25 -4 16 -9 69 69 W 8 13 30.59 1036 10 16 N/A
8:39 pm 20:39 Cloudy 23 -5 16 -9 74 74 W 7 11 30.59 1036 10 16 N/A
8:59 pm 20:59 Cloudy 23 -5 16 -9 74 74 W 6 9 30.59 1036 10 16 N/A
9:19 pm 21:19 Partly Cloudy 21 -6 16 -9 80 80 W 7 11 30.59 1036 10 16 N/A
9:39 pm 21:39 Clear 19 -7 14 -10 79 79 W 6 9 30.59 1036 10 16 N/A
9:59 pm 21:59 Clear 19 -7 16 -9 86 86 WNW 3 6 30.56 1035 10 16 N/A
10:19 pm 22:19 Clear 19 -7 14 -10 79 79 WNW 3 6 30.56 1035 10 16 N/A
10:39 pm 22:39 Clear 19 -7 14 -10 79 79 WNW 3 6 30.56 1035 10 16 N/A
10:59 pm 22:59 Clear 19 -7 14 -10 79 79 W 6 9 30.56 1035 10 16 N/A
11:19 pm 23:19 Clear 18 -8 14 -10 86 86 WSW 3 6 30.56 1035 10 16 N/A
11:39 pm 23:39 Clear 18 -8 14 -10 86 86 W 5 7 30.56 1035 10 16 N/A
11:59 pm 23:59 Clear 16 -9 12 -11 86 86 W 7 11 30.62 1037 10 16 N/A

Powered by AerisWeather